Date String (YYYY-MM-DD hh:mm:ss) UTC,Instrument flags,Ambient pressure (hPa),Sample flow (lpm),Bypass flow (lpm),Sample temperature (°C),Ambient temperature (°C),ASC tube jacket temperature (°C),LED temperature (°C),Box temperature (°C),Sample RH (%),Span deviation,Mass concentration (μg/m³),Mass concentration (μg/m³),Mass concentration (μg/m³)
DateTimeUTC,F1_M11,P_M11,Q1_M11,Q2_M11,T1_M11,T2_M11,T3_M11,T4_M11,T5_M11,U1_M11,ZSPAN_M11,X2_M11,X0_M11,X1_M11
2022-02-16 06:00:00,,0815.8,5.01,0.00,26.9,26.0,00.0,36.0,28.7,09.2,0004.1,0013.89,0025.74,0012.27
2022-02-16 06:01:00,,0816.0,4.98,0.00,26.9,26.0,00.0,36.0,28.7,09.2,0004.3,0014.32,0026.53,0012.68
2022-02-16 06:02:00,,0816.0,5.00,0.00,26.9,26.0,00.0,36.0,28.7,09.3,0004.1,0014.54,0026.42,0012.89
2022-02-16 06:03:00,,0815.9,5.00,0.00,26.9,26.0,00.0,36.0,28.7,09.4,0003.7,0014.61,0026.35,0012.98
2022-02-16 06:04:00,,0815.8,5.01,0.00,26.9,26.0,00.0,36.0,28.7,09.5,0003.2,0014.70,0026.44,0013.04
2022-02-16 06:05:00,,0816.0,4.98,0.00,26.9,26.0,00.0,36.0,28.7,09.6,0003.0,0014.61,0027.53,0012.97
2022-02-16 06:06:00,,0815.9,5.01,0.00,26.9,26.0,00.0,36.0,28.7,09.7,0003.0,0014.40,0028.38,0012.74
2022-02-16 06:07:00,,0815.7,4.99,0.00,26.9,25.9,00.0,35.9,28.6,09.9,0003.3,0013.90,0028.04,0012.29
2022-02-16 06:08:00,,0815.6,5.01,0.00,26.9,25.9,00.0,35.9,28.6,10.0,0003.6,0013.29,0026.63,0011.66
2022-02-16 06:09:00,,0815.7,5.00,0.00,26.8,25.9,00.0,35.9,28.6,10.1,0003.5,0012.47,0025.64,0010.91
2022-02-16 06:10:00,,0815.7,5.03,0.00,26.8,25.8,00.0,35.9,28.5,10.2,0003.3,0011.62,0023.86,0010.16
2022-02-16 06:11:00,,0815.7,5.00,0.00,26.8,25.8,00.0,35.9,28.5,10.3,0003.2,0010.76,0024.01,0009.41
2022-02-16 06:12:00,,0815.8,5.01,0.00,26.8,25.8,00.0,35.9,28.5,10.3,0001.2,0010.04,0023.84,0008.69
2022-02-16 06:13:00,,0815.8,4.99,0.00,26.7,25.8,00.0,35.9,28.5,10.3,0000.0,0009.37,0023.82,0008.03
2022-02-16 06:14:00,,0815.8,5.01,0.00,26.7,25.7,00.0,35.8,28.5,10.3,0000.0,0008.74,0023.01,0007.37
2022-02-16 06:15:00,,0815.8,4.98,0.00,26.7,25.7,00.0,35.8,28.5,10.3,0000.0,0008.00,0021.81,0006.68
2022-02-16 06:16:00,,0815.7,5.00,0.00,26.7,25.7,00.0,35.8,28.4,10.3,0000.0,0007.42,0020.16,0006.09
2022-02-16 06:17:00,,0815.7,5.00,0.00,26.7,25.7,00.0,35.8,28.4,10.4,0000.0,0006.92,0018.63,0005.62
2022-02-16 06:18:00,,0815.6,5.01,0.00,26.6,25.7,00.0,35.8,28.3,10.4,0000.0,0006.63,0017.71,0005.31
2022-02-16 06:19:00,,0815.7,4.99,0.00,26.6,25.6,00.0,35.7,28.3,10.4,0000.0,0006.34,0017.84,0005.12
2022-02-16 06:20:00,,0815.7,5.00,0.00,26.6,25.6,00.0,35.7,28.3,10.4,0000.0,0006.22,0018.44,0004.98
2022-02-16 06:21:00,,0815.8,5.01,0.00,26.5,25.5,00.0,35.7,28.2,10.4,0000.0,0006.08,0017.85,0004.82
2022-02-16 06:22:00,,0815.8,4.99,0.00,26.5,25.5,00.0,35.7,28.2,10.5,0000.0,0005.95,0016.96,0004.68
2022-02-16 06:23:00,,0815.8,5.02,0.00,26.5,25.5,00.0,35.7,28.2,10.5,0000.0,0005.73,0016.19,0004.51
2022-02-16 06:24:00,,0815.8,4.99,0.00,26.5,25.5,00.0,35.6,28.2,10.6,0000.0,0005.53,0015.40,0004.34
2022-02-16 06:25:00,,0815.7,5.01,0.00,26.4,25.4,00.0,35.6,28.2,10.6,0000.0,0005.39,0015.28,0004.21
2022-02-16 06:26:00,,0815.7,4.99,0.00,26.4,25.4,00.0,35.6,28.2,10.6,0000.0,0005.32,0015.08,0004.14
2022-02-16 06:27:00,,0815.7,4.99,0.00,26.4,25.4,00.0,35.6,28.2,10.7,0000.0,0005.22,0014.67,0004.08
2022-02-16 06:28:00,,0815.7,5.02,0.00,26.4,25.4,00.0,35.6,28.2,10.7,0000.0,0005.14,0014.61,0004.03
2022-02-16 06:29:00,,0815.8,4.99,0.00,26.4,25.4,00.0,35.5,28.2,10.7,0000.0,0005.09,0015.45,0003.98
2022-02-16 06:30:00,,0815.8,5.00,0.00,26.4,25.4,00.0,35.5,28.1,10.7,0000.0,0005.12,0014.67,0003.97
2022-02-16 06:31:00,,0815.9,4.99,0.00,26.4,25.4,00.0,35.5,28.1,10.7,0000.0,0005.14,0014.45,0003.97
2022-02-16 06:32:00,,0816.0,4.99,0.00,26.4,25.4,00.0,35.5,28.1,10.8,0000.0,0005.14,0014.65,0003.98
2022-02-16 06:33:00,,0816.2,5.01,0.00,26.4,25.3,00.0,35.5,28.1,10.8,0000.0,0005.16,0014.16,0003.96
2022-02-16 06:34:00,,0816.5,5.00,0.00,26.4,25.4,00.0,35.5,28.2,10.8,0000.0,0005.23,0014.99,0003.98
2022-02-16 06:35:00,,0816.2,5.01,0.00,26.4,25.4,00.0,35.4,28.2,10.7,0000.0,0005.30,0016.44,0004.00
2022-02-16 06:36:00,,0816.2,5.00,0.00,26.4,25.4,00.0,35.4,28.2,10.8,0000.0,0005.27,0016.68,0004.01
2022-02-16 06:37:00,,0816.3,5.00,0.00,26.4,25.5,00.0,35.4,28.2,10.7,0000.0,0005.25,0017.12,0004.00
2022-02-16 06:38:00,,0816.2,4.99,0.00,26.4,25.5,00.0,35.4,28.2,10.7,0000.0,0005.23,0017.39,0004.02
2022-02-16 06:39:00,,0816.2,5.01,0.00,26.4,25.5,00.0,35.4,28.2,10.7,0000.0,0005.26,0017.29,0004.07
2022-02-16 06:40:00,,0816.2,4.99,0.00,26.4,25.6,00.0,35.4,28.2,10.8,0000.0,0005.33,0016.84,0004.13
2022-02-16 06:41:00,,0816.1,4.99,0.00,26.4,25.6,00.0,35.4,28.2,10.8,0000.0,0005.36,0017.13,0004.16
2022-02-16 06:42:00,,0816.2,5.02,0.00,26.4,25.6,00.0,35.4,28.2,10.8,0000.0,0005.43,0017.42,0004.17
2022-02-16 06:43:00,,0816.1,4.98,0.00,26.4,25.6,00.0,35.4,28.2,10.8,0000.0,0005.43,0017.46,0004.18
2022-02-16 06:44:00,,0816.2,5.00,0.00,26.4,25.6,00.0,35.4,28.2,10.9,0000.0,0005.40,0018.51,0004.17
2022-02-16 06:45:00,,0816.2,5.01,0.00,26.4,25.6,00.0,35.4,28.2,10.9,0000.0,0005.27,0019.20,0004.10
2022-02-16 06:46:00,,0816.2,5.00,0.00,26.4,25.6,00.0,35.4,28.2,10.9,0000.0,0005.17,0018.34,0004.03
2022-02-16 06:47:00,,0816.2,5.00,0.00,26.4,25.6,00.0,35.4,28.2,11.0,0000.0,0005.10,0018.47,0003.95
2022-02-16 06:48:00,,0816.3,5.01,0.00,26.4,25.6,00.0,35.4,28.2,11.0,0000.0,0005.05,0017.85,0003.87
2022-02-16 06:49:00,,0816.3,4.99,0.00,26.4,25.6,00.0,35.4,28.2,11.0,0000.0,0004.92,0017.46,0003.74
2022-02-16 06:50:00,,0816.4,5.00,0.00,26.4,25.6,00.0,35.4,28.2,11.0,0000.0,0004.78,0018.02,0003.58
2022-02-16 06:51:00,,0816.3,4.99,0.00,26.4,25.6,00.0,35.4,28.2,11.0,0000.0,0004.63,0017.58,0003.42
2022-02-16 06:52:00,,0816.3,4.99,0.00,26.4,25.6,00.0,35.4,28.2,11.1,0000.0,0004.45,0016.80,0003.28
2022-02-16 06:53:00,,0816.3,5.01,0.00,26.4,25.6,00.0,35.4,28.2,11.1,0000.0,0004.26,0016.03,0003.16
2022-02-16 06:54:00,,0816.2,4.99,0.00,26.4,25.6,00.0,35.4,28.2,11.2,0000.0,0004.15,0015.75,0002.99
2022-02-16 06:55:00,,0816.2,4.99,0.00,26.4,25.5,00.0,35.4,28.2,11.2,0000.0,0004.05,0014.55,0002.81
2022-02-16 06:56:00,,0816.2,5.01,0.00,26.4,25.5,00.0,35.4,28.2,11.2,0000.0,0003.99,0013.54,0002.70
2022-02-16 06:57:00,,0816.3,5.00,0.00,26.4,25.5,00.0,35.4,28.2,11.2,0000.0,0003.92,0012.95,0002.58
2022-02-16 06:58:00,,0816.4,4.99,0.00,26.4,25.5,00.0,35.4,28.2,11.2,0000.0,0003.85,0012.52,0002.48
2022-02-16 06:59:00,,0816.3,5.01,0.00,26.4,25.5,00.0,35.4,28.2,11.2,0000.0,0003.78,0013.68,0002.39
